Showing default

SECOR 3, 1208

Orbit data source: Space-Track

SECOR 3, 1208 is an American payload satellite in LEO that was launched on Tue, 09 Mar 1965 UTC via a THOR SLV-2 AGENA D launch vehicle from the Air Force Western Test Range (AFWTR). Payload-class satellites include a variety of spacecraft equipped with specific instruments for various scientific and technological missions. These include communications satellites like Starlink; space stations such as the ISS; scientific satellites like the Hubble; Earth observation satellites from companies like Planet Labs, Umbra, and HawkEye 360; GPS; miniature CubeSats for education and research; and military/defense satellites.

Loading next visibility...
Identifier
1208, 1965-016E
Orbit
LEO
Country
Flag of USUS
Related business
Manufacturer
ITT
Mission
Defense Geodetic
Bus & Motor
SECOR, Unknown motor
Mass
18 kg wet, 18 kg dry
Launch date (UTC)
1965-03-09 (61 years ago)
Launch vehicle
THOR SLV-2 AGENA D
Launch site
Air Force Western Test Range (AFWTR)
Object type
Payload
Rocket body
Debris
Shape & HBR
Box, 0.2 m
Radar Cross Section
0.105 m², Medium (>0.1 m² and < 1m²)

Expand to show TLE details & history
Last TLE update: 1 day ago

TLE from 1 day ago
0 SECOR 3
1 01208U 65016E   25259.82100361  .00000025  00000-0  56037-4 0  9995
2 01208  70.0798  46.3199 0017478  83.8483  33.0528 13.96017549 81013
Epoch: 2025-09-16T19:42Z
TLE epoch observation values (Epoch: 2025-09-16T19:42:14.711Z)
Latitude
57.00113°
Longitude
-98.96721°
Altitude
905.898 km
Speed
7.41 km/s
True Right ascension
12h 50m 23s
True Declination
56° 50' 49"
Sunlit
Object was in daylight at epoch
Visualization orbit readout
Latitude
Unknown
Longitude
Unknown
Altitude
Unknown
Speed
Unknown
Apparent Right ascension
Unknown
Apparent Declination
Unknown
Sunlit
N/A
Visualization observer readout
Local Sidereal Time
16:03:15
Azimuth
Unknown
Elevation
Unknown
Doppler factor
Unknown
Orbital elements
Apogee altitude
918.384 km
Perigee altitude
892.923 km
Semi-major axis
7,283.79 km
Eccentricity
0.00175
Inclination
70.0798°
RAAN
46.3199°
Arg. of periapsis
83.8483°
True anomaly
33.16224°
Mean anomaly
33.0528°
Eccentric anomaly
33.1075°
Mean motion
3.49146 °/min
Orbital period
103.11 mins
BSTAR
0.000056037
Loading maneuver chart data...
Computing Atmospheric mass density...
Loading historical data...
Loading historical data...
Loading historical data...
Loading historical data...
Loading historical data...
Loading historical data...
Loading historical data...

Documentation

Showing up to 5 results
|